Wetterdaten: Samstag, 20.09.2014
Datum Zeit Temp. A. Feuchte A. Luftdruck Regen Wind Richtung Richtung Sonnenschein ET UV Solar Taupunkt Windchill Windben Empfang
20.09.2014 00:00 15,8 C 89 % 1013,9 hPa 0,3 l/m 0,0 km/h (0 Bft) SW 231 0 min 0,000 mm 0,0 UV-I 0 W/m 14,0 C 15,8 C 0,0 km/h (0 Bft) 0,00 %
20.09.2014 00:15 15,8 C 90 % 1014,3 hPa 0,0 l/m 0,0 km/h (0 Bft) SW 221 0 min 0,000 mm 0,0 UV-I 0 W/m 14,2 C 15,8 C 0,0 km/h (0 Bft) 0,00 %
20.09.2014 00:30 15,8 C 90 % 1014,1 hPa 0,6 l/m 0,0 km/h (0 Bft) N-NW 334 0 min 0,000 mm 0,0 UV-I 0 W/m 14,2 C 15,8 C 0,0 km/h (0 Bft) 0,00 %
20.09.2014 00:45 15,8 C 90 % 1013,9 hPa 0,0 l/m 0,0 km/h (0 Bft) W-NW 293 0 min 0,000 mm 0,0 UV-I 0 W/m 14,2 C 15,8 C 0,0 km/h (0 Bft) 0,00 %
20.09.2014 01:00 15,7 C 90 % 1013,6 hPa 0,0 l/m 0,0 km/h (0 Bft) W-NW 282 0 min 0,000 mm 0,0 UV-I 0 W/m 14,1 C 15,7 C 0,0 km/h (0 Bft) 0,00 %
20.09.2014 01:15 15,6 C 90 % 1013,8 hPa 0,0 l/m 0,0 km/h (0 Bft) W-NW 282 0 min 0,000 mm 0,0 UV-I 0 W/m 14,0 C 15,6 C 0,0 km/h (0 Bft) 0,00 %
20.09.2014 01:30 15,4 C 91 % 1013,6 hPa 0,0 l/m 0,0 km/h (0 Bft) W-SW 243 0 min 0,000 mm 0,0 UV-I 0 W/m 13,9 C 15,4 C 0,0 km/h (0 Bft) 0,00 %
20.09.2014 01:45 15,2 C 91 % 1013,9 hPa 0,0 l/m 0,0 km/h (0 Bft) W-SW 244 0 min 0,000 mm 0,0 UV-I 0 W/m 13,7 C 15,2 C 0,0 km/h (0 Bft) 0,00 %
20.09.2014 02:00 15,0 C 91 % 1013,6 hPa 0,0 l/m 0,0 km/h (0 Bft) W-SW 244 0 min 0,000 mm 0,0 UV-I 0 W/m 13,5 C 15,0 C 0,0 km/h (0 Bft) 0,00 %
20.09.2014 02:15 14,8 C 91 % 1013,6 hPa 0,0 l/m 0,0 km/h (0 Bft) S 190 0 min 0,000 mm 0,0 UV-I 0 W/m 13,3 C 14,8 C 0,0 km/h (0 Bft) 0,00 %
20.09.2014 02:30 14,6 C 92 % 1013,6 hPa 0,0 l/m 0,0 km/h (0 Bft) S 191 0 min 0,000 mm 0,0 UV-I 0 W/m 13,3 C 14,6 C 0,0 km/h (0 Bft) 0,00 %
20.09.2014 02:45 14,3 C 92 % 1013,7 hPa 0,0 l/m 0,0 km/h (0 Bft) S 191 0 min 0,000 mm 0,0 UV-I 0 W/m 13,0 C 14,3 C 0,0 km/h (0 Bft) 0,00 %
20.09.2014 03:00 14,0 C 92 % 1013,7 hPa 0,0 l/m 0,0 km/h (0 Bft) S 191 0 min 0,000 mm 0,0 UV-I 0 W/m 12,7 C 14,0 C 0,0 km/h (0 Bft) 0,00 %
20.09.2014 03:15 13,7 C 92 % 1013,8 hPa 0,0 l/m 0,0 km/h (0 Bft) S 191 0 min 0,000 mm 0,0 UV-I 0 W/m 12,4 C 13,7 C 0,0 km/h (0 Bft) 0,00 %
20.09.2014 03:30 13,7 C 92 % 1013,9 hPa 0,0 l/m 0,4 km/h (0 Bft) O 96 0 min 0,000 mm 0,0 UV-I 0 W/m 12,4 C 13,7 C 4,0 km/h (1 Bft) 0,00 %
20.09.2014 03:45 14,1 C 93 % 1013,7 hPa 0,0 l/m 0,0 km/h (0 Bft) O-SO 107 0 min 0,000 mm 0,0 UV-I 0 W/m 13,0 C 14,1 C 0,0 km/h (0 Bft) 0,00 %
20.09.2014 04:00 14,0 C 93 % 1013,8 hPa 0,0 l/m 0,0 km/h (0 Bft) O-NO 73 0 min 0,000 mm 0,0 UV-I 0 W/m 12,9 C 14,0 C 0,0 km/h (0 Bft) 0,00 %
20.09.2014 04:15 13,7 C 93 % 1013,9 hPa 0,0 l/m 0,0 km/h (0 Bft) O-NO 73 0 min 0,000 mm 0,0 UV-I 0 W/m 12,6 C 13,7 C 0,0 km/h (0 Bft) 0,00 %
20.09.2014 04:30 13,5 C 93 % 1014,0 hPa 0,0 l/m 0,0 km/h (0 Bft) O-SO 122 0 min 0,000 mm 0,0 UV-I 0 W/m 12,4 C 13,5 C 0,0 km/h (0 Bft) 0,00 %
20.09.2014 04:45 13,5 C 93 % 1014,1 hPa 0,0 l/m 0,0 km/h (0 Bft) O-SO 122 0 min 0,000 mm 0,0 UV-I 0 W/m 12,4 C 13,5 C 0,0 km/h (0 Bft) 0,00 %
20.09.2014 05:00 13,1 C 93 % 1014,1 hPa 0,0 l/m 0,0 km/h (0 Bft) O-SO 122 0 min 0,000 mm 0,0 UV-I 0 W/m 12,0 C 13,1 C 0,0 km/h (0 Bft) 0,00 %
20.09.2014 05:15 12,7 C 93 % 1014,3 hPa 0,0 l/m 0,0 km/h (0 Bft) SW 225 0 min 0,000 mm 0,0 UV-I 0 W/m 11,6 C 12,7 C 0,0 km/h (0 Bft) 0,00 %
20.09.2014 05:30 12,5 C 93 % 1014,2 hPa 0,0 l/m 0,0 km/h (0 Bft) SW 225 0 min 0,000 mm 0,0 UV-I 0 W/m 11,4 C 12,5 C 0,0 km/h (0 Bft) 0,00 %
20.09.2014 05:45 12,5 C 93 % 1013,8 hPa 0,0 l/m 0,0 km/h (0 Bft) S 174 0 min 0,000 mm 0,0 UV-I 0 W/m 11,4 C 12,5 C 0,0 km/h (0 Bft) 0,00 %
20.09.2014 06:00 12,6 C 94 % 1013,8 hPa 0,0 l/m 0,0 km/h (0 Bft) S-SW 207 0 min 0,000 mm 0,0 UV-I 0 W/m 11,7 C 12,6 C 0,0 km/h (0 Bft) 0,00 %
20.09.2014 06:15 12,6 C 94 % 1013,9 hPa 0,0 l/m 0,0 km/h (0 Bft) S-SW 213 0 min 0,000 mm 0,0 UV-I 0 W/m 11,7 C 12,6 C 0,0 km/h (0 Bft) 0,00 %
20.09.2014 06:30 12,4 C 94 % 1014,0 hPa 0,0 l/m 0,0 km/h (0 Bft) O 100 0 min 0,000 mm 0,0 UV-I 0 W/m 11,5 C 12,4 C 0,0 km/h (0 Bft) 0,00 %
20.09.2014 06:45 12,2 C 94 % 1014,1 hPa 0,0 l/m 0,0 km/h (0 Bft) SO 136 0 min 0,000 mm 1,0 UV-I 0 W/m 11,3 C 12,2 C 0,0 km/h (0 Bft) 0,00 %
20.09.2014 07:00 12,4 C 94 % 1014,1 hPa 0,0 l/m 0,0 km/h (0 Bft) S 180 0 min 0,000 mm 1,0 UV-I 2 W/m 11,5 C 12,4 C 0,0 km/h (0 Bft) 0,00 %
20.09.2014 07:15 12,7 C 94 % 1013,9 hPa 0,0 l/m 0,0 km/h (0 Bft) S 178 0 min 0,000 mm 1,0 UV-I 25 W/m 11,8 C 12,7 C 0,0 km/h (0 Bft) 0,00 %
20.09.2014 07:30 12,9 C 94 % 1014,0 hPa 0,0 l/m 0,0 km/h (0 Bft) SW 224 0 min 0,000 mm 1,0 UV-I 38 W/m 12,0 C 12,9 C 0,0 km/h (0 Bft) 0,00 %
20.09.2014 07:45 13,2 C 94 % 1013,7 hPa 0,0 l/m 0,0 km/h (0 Bft) SO 128 0 min 0,000 mm 1,0 UV-I 55 W/m 12,3 C 13,2 C 0,0 km/h (0 Bft) 0,00 %
20.09.2014 08:00 13,7 C 93 % 1014,0 hPa 0,0 l/m 0,0 km/h (0 Bft) W-SW 251 0 min 0,000 mm 1,0 UV-I 89 W/m 12,6 C 13,7 C 0,0 km/h (0 Bft) 0,00 %
20.09.2014 08:15 13,9 C 93 % 1013,5 hPa 0,0 l/m 0,0 km/h (0 Bft) W-SW 251 0 min 0,000 mm 2,0 UV-I 85 W/m 12,8 C 13,9 C 0,0 km/h (0 Bft) 0,00 %
20.09.2014 08:30 14,8 C 93 % 1013,5 hPa 0,0 l/m 0,0 km/h (0 Bft) SW 233 0 min 0,000 mm 1,0 UV-I 105 W/m 13,7 C 14,8 C 0,0 km/h (0 Bft) 0,00 %
20.09.2014 08:45 14,7 C 93 % 1013,2 hPa 0,0 l/m 0,0 km/h (0 Bft) SW 216 0 min 0,000 mm 2,0 UV-I 108 W/m 13,6 C 14,7 C 0,0 km/h (0 Bft) 0,00 %
20.09.2014 09:00 14,9 C 93 % 1013,4 hPa 0,0 l/m 0,0 km/h (0 Bft) SW 226 0 min 0,000 mm 2,0 UV-I 123 W/m 13,8 C 14,9 C 0,0 km/h (0 Bft) 0,00 %
20.09.2014 09:15 15,0 C 93 % 1013,6 hPa 0,0 l/m 0,0 km/h (0 Bft) W-SW 251 0 min 0,000 mm 2,0 UV-I 114 W/m 13,9 C 15,0 C 0,0 km/h (0 Bft) 0,00 %
20.09.2014 09:30 16,3 C 92 % 1013,0 hPa 0,0 l/m 0,0 km/h (0 Bft) SW 224 0 min 0,000 mm 2,0 UV-I 152 W/m 15,0 C 16,3 C 0,0 km/h (0 Bft) 0,00 %
20.09.2014 09:45 17,9 C 85 % 1013,3 hPa 0,0 l/m 0,4 km/h (0 Bft) W-SW 255 15 min 0,000 mm 2,0 UV-I 259 W/m 15,3 C 17,9 C 4,0 km/h (1 Bft) 0,00 %
20.09.2014 10:00 17,9 C 80 % 1013,3 hPa 0,0 l/m 0,0 km/h (0 Bft) W-SW 252 0 min 0,000 mm 3,0 UV-I 227 W/m 14,4 C 17,9 C 0,0 km/h (0 Bft) 0,00 %
20.09.2014 10:15 18,0 C 80 % 1013,2 hPa 0,0 l/m 0,0 km/h (0 Bft) W-SW 255 0 min 0,000 mm 4,0 UV-I 208 W/m 14,5 C 18,0 C 0,0 km/h (0 Bft) 0,00 %
20.09.2014 10:30 18,4 C 77 % 1012,8 hPa 0,0 l/m 0,0 km/h (0 Bft) W-SW 252 0 min 0,000 mm 4,0 UV-I 230 W/m 14,3 C 18,4 C 0,0 km/h (0 Bft) 0,00 %
20.09.2014 10:45 18,6 C 77 % 1012,7 hPa 0,0 l/m 0,0 km/h (0 Bft) W-SW 253 0 min 0,000 mm 5,0 UV-I 292 W/m 14,5 C 18,6 C 0,0 km/h (0 Bft) 0,00 %
20.09.2014 11:00 19,9 C 71 % 1012,4 hPa 0,0 l/m 0,4 km/h (0 Bft) S-SW 212 15 min 0,000 mm 5,0 UV-I 419 W/m 14,5 C 19,9 C 4,0 km/h (1 Bft) 0,00 %
20.09.2014 11:15 21,0 C 67 % 1011,9 hPa 0,0 l/m 0,0 km/h (0 Bft) SO 142 15 min 0,000 mm 4,0 UV-I 456 W/m 14,6 C 21,0 C 0,0 km/h (0 Bft) 0,00 %
20.09.2014 11:30 22,1 C 66 % 1011,6 hPa 0,0 l/m 1,8 km/h (1 Bft) O 98 0 min 0,000 mm 4,0 UV-I 275 W/m 15,4 C 22,1 C 4,0 km/h (1 Bft) 0,00 %
20.09.2014 11:45 21,9 C 67 % 1011,2 hPa 0,0 l/m 2,9 km/h (1 Bft) W-NW 293 15 min 0,000 mm 5,0 UV-I 549 W/m 15,5 C 21,9 C 4,0 km/h (1 Bft) 0,00 %
20.09.2014 12:00 20,8 C 68 % 1012,1 hPa 0,0 l/m 0,0 km/h (0 Bft) O 81 0 min 0,000 mm 4,0 UV-I 350 W/m 14,7 C 20,8 C 0,0 km/h (0 Bft) 0,00 %
20.09.2014 12:15 21,5 C 65 % 1012,1 hPa 0,0 l/m 0,0 km/h (0 Bft) N-NW 328 0 min 0,000 mm 4,0 UV-I 357 W/m 14,6 C 21,5 C 0,0 km/h (0 Bft) 0,00 %
20.09.2014 12:30 21,1 C 66 % 1012,2 hPa 0,0 l/m 0,0 km/h (0 Bft) W-SW 253 15 min 0,000 mm 4,0 UV-I 394 W/m 14,5 C 21,1 C 0,0 km/h (0 Bft) 0,00 %
20.09.2014 12:45 21,6 C 64 % 1011,8 hPa 0,0 l/m 0,0 km/h (0 Bft) SO 140 15 min 0,000 mm 2,0 UV-I 407 W/m 14,5 C 21,6 C 0,0 km/h (0 Bft) 0,00 %
20.09.2014 13:00 22,2 C 63 % 1011,8 hPa 0,0 l/m 0,0 km/h (0 Bft) S 191 15 min 0,000 mm 2,0 UV-I 376 W/m 14,8 C 22,2 C 0,0 km/h (0 Bft) 0,00 %
20.09.2014 13:15 23,4 C 63 % 1011,7 hPa 0,0 l/m 0,0 km/h (0 Bft) SO 129 15 min 0,000 mm 2,0 UV-I 398 W/m 15,9 C 23,4 C 0,0 km/h (0 Bft) 0,00 %
20.09.2014 13:30 22,4 C 66 % 1011,7 hPa 0,0 l/m 0,7 km/h (0 Bft) W-SW 256 0 min 0,000 mm 2,0 UV-I 275 W/m 15,7 C 22,4 C 4,0 km/h (1 Bft) 0,00 %
20.09.2014 13:45 21,9 C 65 % 1011,9 hPa 0,0 l/m 0,0 km/h (0 Bft) W-SW 238 0 min 0,000 mm 2,0 UV-I 208 W/m 15,0 C 21,9 C 0,0 km/h (0 Bft) 0,00 %
20.09.2014 14:00 21,5 C 68 % 1011,8 hPa 0,0 l/m 0,0 km/h (0 Bft) W-SW 256 0 min 0,000 mm 2,0 UV-I 170 W/m 15,3 C 21,5 C 0,0 km/h (0 Bft) 0,00 %
20.09.2014 14:15 21,1 C 69 % 1011,5 hPa 0,0 l/m 0,0 km/h (0 Bft) O-NO 74 0 min 0,000 mm 3,0 UV-I 157 W/m 15,2 C 21,1 C 0,0 km/h (0 Bft) 0,00 %
20.09.2014 14:30 20,9 C 69 % 1011,6 hPa 0,0 l/m 0,0 km/h (0 Bft) W-SW 255 0 min 0,000 mm 2,0 UV-I 207 W/m 15,0 C 20,9 C 0,0 km/h (0 Bft) 0,00 %
20.09.2014 14:45 20,9 C 70 % 1011,6 hPa 0,0 l/m 0,0 km/h (0 Bft) SW 218 0 min 0,000 mm 2,0 UV-I 193 W/m 15,2 C 20,9 C 0,0 km/h (0 Bft) 0,00 %
20.09.2014 15:00 21,4 C 70 % 1011,1 hPa 0,3 l/m 0,0 km/h (0 Bft) S-SW 207 0 min 0,000 mm 2,0 UV-I 214 W/m 15,7 C 21,4 C 0,0 km/h (0 Bft) 0,00 %
20.09.2014 15:15 21,8 C 69 % 1011,0 hPa 0,0 l/m 0,7 km/h (0 Bft) W-SW 256 0 min 0,000 mm 2,0 UV-I 214 W/m 15,9 C 21,8 C 4,0 km/h (1 Bft) 0,00 %
20.09.2014 15:30 21,7 C 69 % 1010,3 hPa 0,0 l/m 0,0 km/h (0 Bft) W-SW 255 0 min 0,000 mm 2,0 UV-I 226 W/m 15,8 C 21,7 C 0,0 km/h (0 Bft) 0,00 %
20.09.2014 15:45 21,3 C 70 % 1010,7 hPa 0,0 l/m 0,0 km/h (0 Bft) W-SW 250 0 min 0,000 mm 2,0 UV-I 167 W/m 15,6 C 21,3 C 0,0 km/h (0 Bft) 0,00 %
20.09.2014 16:00 21,0 C 69 % 1010,5 hPa 0,0 l/m 0,0 km/h (0 Bft) S 186 0 min 0,000 mm 2,0 UV-I 156 W/m 15,1 C 21,0 C 0,0 km/h (0 Bft) 0,00 %
20.09.2014 16:15 21,5 C 68 % 1010,0 hPa 0,0 l/m 0,0 km/h (0 Bft) S-SW 192 0 min 0,000 mm 1,0 UV-I 192 W/m 15,3 C 21,5 C 0,0 km/h (0 Bft) 0,00 %
20.09.2014 16:30 22,2 C 66 % 1009,8 hPa 0,0 l/m 0,0 km/h (0 Bft) SW 233 15 min 0,000 mm 1,0 UV-I 248 W/m 15,5 C 22,2 C 0,0 km/h (0 Bft) 0,00 %
20.09.2014 16:45 22,6 C 63 % 1010,6 hPa 0,0 l/m 0,7 km/h (0 Bft) SW 221 15 min 0,000 mm 1,0 UV-I 575 W/m 15,2 C 22,6 C 4,0 km/h (1 Bft) 0,00 %
20.09.2014 17:00 22,3 C 64 % 1010,5 hPa 0,0 l/m 2,2 km/h (1 Bft) W-SW 253 15 min 0,000 mm 1,0 UV-I 332 W/m 15,2 C 22,3 C 4,0 km/h (1 Bft) 0,00 %
20.09.2014 17:15 22,9 C 62 % 1010,1 hPa 0,0 l/m 0,0 km/h (0 Bft) O-SO 109 15 min 0,000 mm 1,0 UV-I 547 W/m 15,2 C 22,9 C 0,0 km/h (0 Bft) 0,00 %
20.09.2014 17:30 22,0 C 63 % 1010,7 hPa 0,0 l/m 0,0 km/h (0 Bft) S 191 15 min 0,000 mm 1,0 UV-I 368 W/m 14,6 C 22,0 C 0,0 km/h (0 Bft) 0,00 %
20.09.2014 17:45 21,2 C 64 % 1011,1 hPa 0,0 l/m 0,0 km/h (0 Bft) W-SW 245 0 min 0,000 mm 0,0 UV-I 107 W/m 14,1 C 21,2 C 0,0 km/h (0 Bft) 0,00 %
20.09.2014 18:00 20,6 C 64 % 1011,2 hPa 0,0 l/m 0,0 km/h (0 Bft) SW 218 15 min 0,000 mm 0,0 UV-I 102 W/m 13,5 C 20,6 C 0,0 km/h (0 Bft) 0,00 %
20.09.2014 18:15 20,7 C 65 % 1010,9 hPa 0,0 l/m 0,0 km/h (0 Bft) SW 224 15 min 0,000 mm 0,0 UV-I 207 W/m 13,9 C 20,7 C 0,0 km/h (0 Bft) 0,00 %
20.09.2014 18:30 20,5 C 68 % 1011,5 hPa 0,0 l/m 0,0 km/h (0 Bft) SW 226 0 min 0,000 mm 0,0 UV-I 44 W/m 14,4 C 20,5 C 0,0 km/h (0 Bft) 0,00 %
20.09.2014 18:45 19,3 C 76 % 1011,8 hPa 0,0 l/m 0,0 km/h (0 Bft) SO 133 0 min 0,000 mm 0,0 UV-I 16 W/m 15,0 C 19,3 C 0,0 km/h (0 Bft) 0,00 %
20.09.2014 19:00 18,5 C 82 % 1011,9 hPa 0,0 l/m 0,0 km/h (0 Bft) S-SW 207 0 min 0,000 mm 0,0 UV-I 1 W/m 15,4 C 18,5 C 0,0 km/h (0 Bft) 0,00 %
20.09.2014 19:15 18,0 C 83 % 1012,1 hPa 0,0 l/m 0,0 km/h (0 Bft) S-SW 192 0 min 0,000 mm 0,0 UV-I 0 W/m 15,1 C 18,0 C 0,0 km/h (0 Bft) 0,00 %
20.09.2014 19:30 17,6 C 85 % 1012,1 hPa 0,0 l/m 0,0 km/h (0 Bft) S 184 0 min 0,000 mm 0,0 UV-I 0 W/m 15,0 C 17,6 C 0,0 km/h (0 Bft) 0,00 %
20.09.2014 19:45 17,3 C 86 % 1012,6 hPa 0,0 l/m 0,0 km/h (0 Bft) S-SW 202 0 min 0,000 mm 0,0 UV-I 0 W/m 14,9 C 17,3 C 0,0 km/h (0 Bft) 0,00 %
20.09.2014 20:00 17,1 C 87 % 1012,6 hPa 0,0 l/m 0,0 km/h (0 Bft) S 184 0 min 0,000 mm 0,0 UV-I 0 W/m 14,9 C 17,1 C 0,0 km/h (0 Bft) 0,00 %
20.09.2014 20:15 17,0 C 86 % 1012,5 hPa 0,0 l/m 0,0 km/h (0 Bft) S-SW 200 0 min 0,000 mm 0,0 UV-I 0 W/m 14,6 C 17,0 C 0,0 km/h (0 Bft) 0,00 %
20.09.2014 20:30 16,7 C 86 % 1012,6 hPa 0,0 l/m 0,0 km/h (0 Bft) S-SW 201 0 min 0,000 mm 0,0 UV-I 0 W/m 14,3 C 16,7 C 0,0 km/h (0 Bft) 0,00 %
20.09.2014 20:45 16,7 C 85 % 1012,6 hPa 0,0 l/m 0,0 km/h (0 Bft) NO 50 0 min 0,000 mm 0,0 UV-I 0 W/m 14,2 C 16,7 C 0,0 km/h (0 Bft) 0,00 %
20.09.2014 21:00 16,4 C 86 % 1012,5 hPa 0,0 l/m 0,0 km/h (0 Bft) SW 218 0 min 0,000 mm 0,0 UV-I 0 W/m 14,1 C 16,4 C 0,0 km/h (0 Bft) 0,00 %
20.09.2014 21:15 16,3 C 86 % 1012,6 hPa 0,0 l/m 0,0 km/h (0 Bft) S 180 0 min 0,000 mm 0,0 UV-I 0 W/m 14,0 C 16,3 C 0,0 km/h (0 Bft) 0,00 %
20.09.2014 21:30 16,4 C 85 % 1012,5 hPa 0,0 l/m 0,0 km/h (0 Bft) S 182 0 min 0,000 mm 0,0 UV-I 0 W/m 13,9 C 16,4 C 0,0 km/h (0 Bft) 0,00 %
20.09.2014 21:45 16,4 C 86 % 1012,5 hPa 0,0 l/m 0,0 km/h (0 Bft) S 189 0 min 0,000 mm 0,0 UV-I 0 W/m 14,1 C 16,4 C 0,0 km/h (0 Bft) 0,00 %
20.09.2014 22:00 16,4 C 86 % 1012,4 hPa 0,0 l/m 0,0 km/h (0 Bft) S 189 0 min 0,000 mm 0,0 UV-I 0 W/m 14,1 C 16,4 C 0,0 km/h (0 Bft) 0,00 %
20.09.2014 22:15 16,3 C 86 % 1012,5 hPa 0,0 l/m 0,0 km/h (0 Bft) S 190 0 min 0,000 mm 0,0 UV-I 0 W/m 14,0 C 16,3 C 0,0 km/h (0 Bft) 0,00 %
20.09.2014 22:30 16,2 C 87 % 1012,4 hPa 0,0 l/m 0,0 km/h (0 Bft) S-SW 209 0 min 0,000 mm 0,0 UV-I 0 W/m 14,0 C 16,2 C 0,0 km/h (0 Bft) 0,00 %
20.09.2014 22:45 16,1 C 88 % 1012,8 hPa 0,0 l/m 0,0 km/h (0 Bft) S-SW 209 0 min 0,000 mm 0,0 UV-I 0 W/m 14,1 C 16,1 C 0,0 km/h (0 Bft) 0,00 %
20.09.2014 23:00 16,0 C 88 % 1012,7 hPa 0,0 l/m 0,0 km/h (0 Bft) S 186 0 min 0,000 mm 0,0 UV-I 0 W/m 14,0 C 16,0 C 0,0 km/h (0 Bft) 0,00 %
20.09.2014 23:15 15,9 C 89 % 1012,7 hPa 0,0 l/m 0,0 km/h (0 Bft) O-NO 75 0 min 0,000 mm 0,0 UV-I 0 W/m 14,1 C 15,9 C 0,0 km/h (0 Bft) 0,00 %
20.09.2014 23:30 15,8 C 89 % 1012,6 hPa 0,0 l/m 0,0 km/h (0 Bft) W-NW 300 0 min 0,000 mm 0,0 UV-I 0 W/m 14,0 C 15,8 C 0,0 km/h (0 Bft) 0,00 %
20.09.2014 23:45 15,8 C 89 % 1012,9 hPa 0,0 l/m 0,0 km/h (0 Bft) SW 222 0 min 0,000 mm 0,0 UV-I 0 W/m 14,0 C 15,8 C 0,0 km/h (0 Bft) 0,00 %
_ Min-Zeit 06:45 17:15 16:30 - 00:00 - - - - - - 06:45 06:45 00:00 00:00
Minimum _ 12,2 C 62 % 1009,8 hPa - 0,0 km/h (0 Bft) - - - - - - 11,3 C 12,2 C 0,0 km/h (0 Bft) 0,00 %
_ Max-Zeit 13:15 06:00 00:15 00:30 11:45 - - 09:45 00:00 10:45 16:45 13:15 13:15 03:30 00:00
Maximum _ 23,4 C 94 % 1014,3 hPa 0,6 l/m 2,9 km/h
W-NW (1 Bft)
- - 15 min 0,000 mm 5,0 UV-I 575 W/m 15,9 C 23,4 C 4,0 km/h
O (1 Bft)
0,00 %
Durchschnitt _ 17,3 C 82 % 1012,6 hPa #1,2 l/m 0,1 km/h (0 Bft) O - #3:45 h #0,000 mm 2,3 UV-I 225 W/m 14,0 C 17,3 C 0,4 km/h (0 Bft) 0,00 %